Temp
62 62 61 61 61 61 60 59 58 58 58 58 57 57 57 57 56 55 54 55 53 54 55 54 54 56 56 57 57 56 55 52 45 52 57 60 59 59 61 60 59 58 58
63 61 60 60 60 59 58 58 58 57 58 57 57 57 57 56 56 55 53 53 52 52 53 53 53 56 53 55 54 52 54 54 53 50 54 57 57 58 58 55 59 61 59
63 61 59 59 58 58 57 57 57 56 57 57 56 55 55 54 55 55 52 51 51 51 52 52 52 53 52 51 50 51 51 53 52 51 50 55 57 57 55 55 54 54 55
61 61 58 57 57 57 57 56 56 56 56 56 56 55 55 55 56 52 50 48 49 51 51 52 53 53 50 49 48 47 49 46 48 48 49 50 51 53 53 48 46 49 49
60 59 57 57 58 57 56 56 56 55 56 56 55 55 55 55 53 48 48 47 47 49 51 54 53 49 46 43 45 43 41 41 42 43 43 44 45 46 43 44 41 41 45
60 58 58 57 57 56 56 55 55 55 55 55 54 54 53 55 39 41 42 46 48 49 50 52 52 48 46 41 40 39 38 37 37 37 38 39 40 40 41 39 37 36 35
59 58 57 57 56 54 55 55 53 52 54 53 53 54 53 53 41 41 39 46 48 49 50 49 47 48 43 43 41 39 40 39 38 38 35 37 38 40 39 36 36 35 34
59 59 58 57 56 54 54 51 50 53 53 53 53 53 53 53 40 39 37 47 48 48 47 46 43 43 43 41 41 40 41 41 41 42 40 40 41 41 40 39 38 37 38
60 59 59 57 56 55 52 41 51 52 52 53 54 53 52 52 39 39 40 45 44 43 44 44 44 43 41 40 39 37 38 39 42 40 40 39 39 39 39 38 33 33 33
60 59 59 58 56 55 54 53 54 54 53 54 53 53 49 50 43 40 41 41 39 40 42 43 41 41 38 38 38 38 35 34 37 37 38 39 40 42 39 41 37 33 33
61 59 58 58 56 56 55 54 54 53 53 52 52 52 51 47 46 40 39 41 39 38 39 40 42 39 38 37 36 38 35 36 35 36 36 37 38 39 39 39 40 37 34
59 57 57 57 56 56 54 53 53 52 50 49 48 46 46 46 41 41 39 38 38 38 38 39 40 37 36 36 37 37 36 35 37 35 34 34 35 36 38 38 37 38 38
57 56 56 55 55 55 52 51 49 48 44 43 41 41 41 42 42 39 37 38 37 37 39 37 36 36 37 37 37 36 35 38 36 34 34 35 36 38 40 39 42 43 41
56 56 55 54 52 52 52 49 46 44 43 42 41 40 41 41 41 41 39 40 37 38 37 39 37 34 35 36 38 39 40 39 37 36 35 37 39 39 38 40 38 39 37
57 56 54 53 51 50 49 48 46 47 43 41 40 40 38 37 38 37 37 36 36 37 35 37 38 38 37 38 39 39 39 39 37 38 37 37 37 38 38 40 38 37 34
55 54 52 48 47 47 46 45 41 38 37 36 35 36 40 38 37 37 36 36 35 35 35 35 35 36 35 36 36 36 38 37 38 37 38 37 36 36 36 38 38 34 33
55 54 52 44 46 45 45 44 43 43 36 36 36 35 36 36 36 36 37 36 35 35 36 35 34 35 35 36 36 36 36 38 39 37 36 37 36 36 35 35 34 33 33
55 36 52 50 49 47 48 45 44 42 41 42 42 39 39 37 36 37 36 36 37 38 37 35 35 35 36 36 36 36 36 37 37 36 36 36 35 34 34 34 33 32 33
54 53 50 50 48 44 44 44 44 43 42 42 44 41 40 37 37 36 36 37 35 35 35 35 36 36 36 37 36 35 35 35 35 34 35 34 33 34 34 33 33 32 33
53 39 40 47 46 45 45 44 43 43 42 42 41 40 40 38 35 34 36 35 35 35 35 35 35 36 36 36 36 35 34 34 34 34 34 33 33 34 33 33 33 33 33
50 47 40 44 44 45 44 43 43 42 42 41 40 40 34 36 35 35 35 34 34 34 34 35 35 35 35 35 34 33 32 33 33 34 34 34 33 33 33 33 33 35 34
49 47 45 44 43 43 42 42 41 41 41 39 38 38 35 37 36 35 34 34 34 35 36 35 34 34 34 34 33 32 32 32 32 33 33 33 33 33 34 34 34 34 34
47 46 45 44 44 39 37 40 40 39 39 38 38 37 37 35 35 34 33 33 34 35 35 35 34 34 34 34 34 33 32 32 32 33 32 32 33 34 34 34 34 34 34
46 45 44 44 41 40 38 36 36 36 37 36 35 34 36 35 33 33 33 33 34 34 34 34 34 34 33 33 33 34 34 33 33 34 33 33 34 34 35 35 35 33 34
45 43 41 41 39 37 34 35 35 34 34 34 32 33 35 35 34 33 33 33 33 33 34 34 34 34 33 32 33 33 33 32 33 33 34 34 34 34 35 35 35 35 34
43 42 42 41 40 37 35 34 33 33 33 32 32 32 34 34 34 33 33 33 33 33 34 34 34 33 33 33 33 32 32 32 33 33 36 36 35 35 35 35 34 35 35
MSLP
1025.19 1025.34 1025.41 1025.42 1025.36 1025.25 1025.17 1025.10 1025.08 1024.83 1024.54 1024.22 1023.89 1023.47 1023.11 1022.88 1022.70 1022.47 1022.33 1021.88 1021.71 1021.25 1020.72 1020.14 1019.54 1019.06 1018.40 1017.80 1017.17 1016.73 1016.09 1015.64 1014.81 1013.71 1013.04 1012.26 1011.60 1011.02 1010.30 1009.68 1009.01 1008.64 1008.18
1025.26 1025.41 1025.58 1025.65 1025.62 1025.50 1025.44 1025.40 1025.34 1025.08 1024.68 1024.34 1023.95 1023.64 1023.36 1023.14 1022.86 1022.65 1022.64 1022.45 1022.02 1021.45 1020.88 1020.37 1019.84 1019.21 1018.79 1018.15 1017.86 1017.34 1016.42 1015.83 1014.66 1013.29 1012.91 1012.13 1011.49 1011.00 1010.59 1010.25 1009.58 1008.82 1008.44
1025.19 1025.32 1025.55 1025.70 1025.71 1025.67 1025.62 1025.52 1025.31 1025.16 1024.72 1024.40 1024.12 1023.86 1023.58 1023.35 1023.11 1022.99 1023.14 1022.81 1022.28 1021.69 1021.02 1020.46 1019.91 1019.29 1018.74 1018.52 1018.39 1017.58 1017.04 1016.08 1015.31 1014.31 1013.05 1012.39 1011.44 1010.92 1010.36 1010.17 1009.90 1009.44 1009.03
1025.25 1025.33 1025.56 1025.80 1025.81 1025.77 1025.70 1025.59 1025.37 1025.15 1024.73 1024.42 1024.17 1023.92 1023.67 1023.36 1023.19 1023.56 1023.49 1023.13 1022.43 1021.68 1021.00 1020.39 1019.72 1019.22 1019.04 1018.90 1018.55 1018.17 1017.36 1017.06 1016.15 1015.09 1013.72 1012.71 1011.97 1011.14 1010.59 1010.27 1009.79 1009.61 1009.04
1025.21 1025.34 1025.61 1025.77 1025.74 1025.79 1025.76 1025.61 1025.37 1025.16 1024.81 1024.46 1024.15 1023.94 1023.73 1023.46 1023.74 1024.27 1023.97 1023.34 1022.52 1021.51 1020.71 1019.93 1019.47 1019.48 1019.48 1019.65 1019.31 1018.82 1018.57 1017.88 1017.04 1015.77 1014.49 1013.43 1012.61 1011.81 1011.63 1011.41 1010.85 1010.15 1009.29
1025.01 1025.29 1025.54 1025.65 1025.67 1025.76 1025.71 1025.59 1025.35 1025.09 1024.79 1024.49 1024.19 1023.94 1023.69 1023.48 1024.27 1024.37 1024.23 1023.56 1022.48 1021.50 1020.40 1019.79 1019.56 1019.43 1019.32 1019.56 1019.45 1019.31 1019.14 1018.46 1017.56 1016.55 1015.44 1014.35 1013.43 1013.03 1012.55 1012.21 1011.64 1010.76 1009.28
1024.81 1025.20 1025.46 1025.55 1025.61 1025.82 1025.75 1025.65 1025.51 1025.23 1024.84 1024.50 1024.22 1023.97 1023.69 1023.57 1024.02 1024.12 1024.25 1023.57 1022.34 1021.36 1020.59 1020.15 1019.98 1019.76 1019.73 1019.37 1019.01 1018.69 1018.32 1017.97 1017.46 1016.73 1015.56 1014.79 1013.61 1013.34 1012.90 1012.18 1011.72 1011.04 1009.97
1024.43 1024.80 1025.22 1025.41 1025.47 1025.69 1025.76 1025.91 1025.75 1025.27 1024.88 1024.52 1024.22 1023.93 1023.75 1023.62 1023.97 1024.26 1024.18 1023.09 1022.22 1021.48 1020.99 1020.58 1020.18 1019.64 1019.28 1018.91 1018.41 1017.87 1017.44 1016.85 1016.33 1015.77 1015.07 1014.24 1013.59 1012.96 1012.66 1011.97 1011.25 1010.45 1009.65
1024.04 1024.42 1024.85 1025.20 1025.24 1025.28 1025.38 1025.97 1025.48 1025.06 1024.72 1024.43 1024.11 1023.86 1023.62 1023.48 1024.02 1024.20 1023.96 1023.30 1022.55 1021.86 1021.34 1020.67 1020.09 1019.35 1018.89 1018.61 1018.12 1017.32 1016.58 1015.84 1015.31 1014.83 1014.34 1013.74 1013.01 1012.35 1011.95 1011.24 1010.55 1009.93 1008.76
1023.60 1024.07 1024.60 1024.85 1025.01 1025.02 1025.14 1025.19 1025.08 1024.89 1024.53 1024.21 1023.92 1023.70 1023.50 1023.40 1023.66 1023.97 1024.03 1023.59 1022.67 1021.79 1021.02 1020.24 1019.56 1019.06 1018.54 1018.28 1017.79 1016.86 1015.86 1015.22 1014.66 1013.97 1013.44 1012.70 1011.99 1011.07 1010.63 1010.24 1009.77 1009.13 1008.63
1023.57 1024.12 1024.39 1024.62 1024.77 1024.91 1025.02 1024.99 1024.85 1024.66 1024.45 1024.14 1023.86 1023.64 1023.56 1023.85 1023.71 1023.68 1023.64 1023.37 1022.66 1021.82 1020.76 1019.72 1019.16 1018.65 1018.22 1017.67 1017.10 1016.42 1015.43 1014.68 1014.00 1013.24 1012.44 1011.78 1011.18 1010.48 1009.83 1009.45 1009.07 1008.72 1008.10
1023.52 1023.91 1024.21 1024.45 1024.68 1024.74 1024.85 1024.82 1024.70 1024.63 1024.42 1024.22 1024.02 1023.99 1023.99 1023.80 1023.77 1023.46 1023.36 1023.26 1022.78 1021.88 1020.58 1019.62 1018.82 1018.30 1017.64 1016.80 1016.08 1015.21 1014.45 1013.89 1013.11 1012.40 1011.75 1011.07 1010.42 1009.81 1009.21 1008.69 1008.26 1007.90 1007.47
1023.37 1023.66 1023.99 1024.34 1024.58 1024.69 1024.76 1024.74 1024.84 1025.09 1025.18 1025.02 1024.84 1024.40 1024.12 1023.97 1023.68 1023.29 1023.16 1022.87 1022.20 1021.47 1020.45 1019.35 1018.49 1017.52 1016.64 1015.76 1014.93 1014.25 1013.65 1012.98 1012.34 1011.74 1011.05 1010.39 1009.80 1009.13 1008.56 1007.98 1007.43 1006.94 1006.39
1022.99 1023.33 1023.73 1024.08 1024.40 1024.76 1024.78 1025.14 1025.40 1025.54 1025.39 1025.21 1024.94 1024.55 1024.15 1023.89 1023.53 1023.22 1022.95 1022.26 1021.58 1020.80 1019.82 1018.81 1017.78 1016.83 1015.79 1015.00 1014.16 1013.51 1012.95 1012.40 1011.85 1011.18 1010.47 1009.73 1009.07 1008.46 1007.94 1007.38 1006.92 1006.34 1005.91
1022.64 1023.04 1023.52 1023.94 1024.37 1024.58 1024.82 1025.08 1025.34 1025.55 1025.73 1025.80 1025.54 1025.06 1024.47 1023.91 1023.66 1023.51 1022.93 1022.08 1021.33 1020.39 1019.50 1018.23 1016.98 1016.03 1015.26 1014.47 1013.66 1012.96 1012.36 1011.81 1011.25 1010.58 1009.89 1009.17 1008.56 1008.01 1007.42 1006.88 1006.59 1006.12 1005.78
1022.34 1022.95 1023.67 1024.23 1024.68 1024.77 1024.84 1024.86 1025.05 1025.37 1025.40 1025.48 1025.41 1025.24 1024.44 1023.94 1023.45 1022.93 1022.44 1021.72 1020.84 1019.87 1018.90 1017.78 1016.76 1015.95 1015.10 1014.23 1013.37 1012.55 1011.85 1011.18 1010.62 1010.12 1009.49 1008.83 1008.25 1007.74 1007.22 1006.71 1006.36 1006.06 1005.49
1022.06 1022.75 1023.43 1024.26 1024.48 1024.56 1024.60 1024.57 1024.37 1024.44 1024.62 1024.52 1024.35 1024.14 1023.91 1023.41 1022.96 1022.45 1021.89 1021.10 1020.15 1019.24 1018.37 1017.45 1016.65 1015.82 1014.90 1014.02 1013.16 1012.36 1011.44 1010.79 1010.21 1009.69 1009.16 1008.53 1008.05 1007.58 1007.10 1006.55 1006.23 1005.73 1005.16
1021.97 1022.92 1023.05 1023.60 1023.88 1024.10 1024.10 1024.26 1024.32 1024.12 1023.78 1023.50 1023.29 1023.25 1022.77 1022.86 1022.70 1022.15 1021.41 1020.55 1019.36 1018.74 1018.12 1017.34 1016.49 1015.59 1014.67 1013.75 1012.89 1012.08 1011.26 1010.48 1009.84 1009.30 1008.76 1008.29 1007.86 1007.46 1006.90 1006.46 1005.98 1005.48 1005.01
1021.74 1022.24 1022.93 1023.36 1023.81 1024.13 1024.35 1024.28 1024.03 1023.88 1023.61 1023.20 1022.84 1022.64 1022.64 1022.56 1022.34 1021.74 1021.06 1020.37 1019.59 1018.78 1018.04 1017.22 1016.38 1015.45 1014.50 1013.58 1012.75 1011.94 1011.17 1010.32 1009.65 1009.01 1008.49 1008.05 1007.69 1007.30 1006.75 1006.35 1005.79 1005.37 1005.12
1021.52 1022.39 1023.02 1023.43 1023.67 1023.78 1023.85 1023.82 1023.71 1023.58 1023.33 1023.00 1022.77 1022.75 1022.57 1022.38 1021.95 1021.34 1020.78 1020.21 1019.59 1018.85 1017.93 1017.06 1016.16 1015.32 1014.44 1013.54 1012.61 1011.79 1010.91 1010.10 1009.35 1008.77 1008.25 1007.89 1007.50 1007.16 1006.66 1006.13 1005.74 1005.37 1005.41
1021.56 1022.31 1023.11 1023.44 1023.46 1023.44 1023.57 1023.64 1023.52 1023.39 1023.09 1022.94 1022.82 1022.81 1022.62 1022.39 1021.76 1021.17 1020.57 1020.04 1019.47 1018.72 1017.83 1016.97 1016.12 1015.26 1014.41 1013.51 1012.64 1011.77 1010.85 1009.96 1009.27 1008.68 1008.21 1007.84 1007.46 1006.95 1006.52 1006.11 1005.89 1005.83 1005.96
1021.41 1022.02 1022.64 1023.00 1023.21 1023.35 1023.50 1023.55 1023.55 1023.23 1023.02 1022.82 1022.81 1022.46 1022.27 1022.01 1021.63 1021.15 1020.57 1019.98 1019.37 1018.58 1017.69 1016.89 1016.07 1015.25 1014.35 1013.49 1012.65 1011.69 1010.73 1009.84 1009.12 1008.64 1008.23 1007.84 1007.36 1006.93 1006.59 1006.42 1006.39 1006.48 1006.64
1021.30 1021.78 1022.22 1022.54 1022.81 1023.30 1023.71 1023.46 1023.26 1023.16 1022.95 1022.84 1022.60 1022.34 1022.05 1021.76 1021.43 1020.91 1020.34 1019.76 1019.10 1018.29 1017.43 1016.71 1015.96 1015.03 1014.21 1013.45 1012.61 1011.75 1010.83 1009.90 1009.24 1008.74 1008.31 1007.88 1007.46 1007.19 1007.01 1006.95 1007.01 1007.08 1007.19
1021.05 1021.44 1021.85 1022.18 1022.70 1023.05 1023.29 1023.37 1023.39 1023.27 1022.94 1022.74 1022.52 1022.34 1021.77 1021.53 1021.12 1020.64 1020.09 1019.50 1018.83 1017.99 1017.24 1016.50 1015.70 1014.95 1014.13 1013.32 1012.48 1011.69 1010.87 1010.04 1009.24 1008.66 1008.34 1008.02 1007.75 1007.58 1007.45 1007.44 1007.56 1007.76 1007.86
1020.71 1021.19 1021.67 1022.02 1022.38 1022.76 1023.07 1023.24 1023.22 1023.22 1023.01 1022.71 1022.49 1022.08 1021.59 1021.23 1020.70 1020.26 1019.77 1019.21 1018.51 1017.80 1016.95 1016.17 1015.43 1014.73 1014.02 1013.22 1012.42 1011.76 1010.98 1010.20 1009.39 1008.80 1008.38 1008.27 1008.16 1008.05 1007.96 1008.05 1008.20 1008.37 1008.54
1020.43 1020.95 1021.33 1021.64 1021.95 1022.41 1022.68 1022.93 1023.06 1023.05 1022.83 1022.58 1022.19 1021.82 1021.39 1020.91 1020.41 1019.97 1019.46 1018.88 1018.30 1017.57 1016.70 1015.88 1015.13 1014.50 1013.87 1013.08 1012.46 1011.82 1011.08 1010.43 1009.82 1009.33 1008.88 1008.72 1008.61 1008.60 1008.65 1008.73 1008.86 1009.07 1009.27
Wind_Speed
4 5 5 6 7 7 7 8 9 10 10 11 11 12 12 12 12 11 13 14 15 14 14 14 15 15 11 11 9 9 11 8 12 11 12 13 14 14 14 13 11 9 10
3 4 5 5 6 6 8 9 9 9 10 10 11 11 11 12 12 12 13 14 14 15 15 14 15 11 14 13 11 15 12 13 12 17 14 12 14 13 13 15 12 12 13
3 3 4 5 6 7 8 8 9 9 10 10 11 11 12 12 12 11 13 15 15 15 15 15 15 15 14 12 14 13 12 12 13 13 14 12 11 11 12 12 13 14 13
2 3 4 5 5 6 7 8 8 9 10 10 10 11 11 12 12 12 15 16 16 15 15 15 15 15 16 17 13 15 14 14 14 13 13 12 11 13 10 10 11 11 13
1 3 3 4 5 5 6 7 8 8 9 10 10 10 11 11 7 11 14 15 16 17 16 15 14 13 12 11 11 13 14 12 13 14 13 13 12 11 12 10 11 12 14
3 1 2 3 5 5 6 7 9 9 9 10 11 11 11 9 8 7 10 14 16 16 16 16 16 17 17 19 13 12 13 14 15 13 13 14 16 12 11 10 12 13 14
4 3 2 3 5 5 7 8 9 10 10 10 11 12 12 13 6 9 9 15 15 15 16 16 15 13 16 15 16 15 16 16 16 14 16 15 17 15 13 13 14 13 14
6 4 4 3 5 4 6 8 9 9 10 10 11 12 12 10 7 10 12 16 15 16 17 17 15 16 16 14 16 16 16 16 14 12 14 16 16 15 15 15 16 15 12
6 6 4 4 5 5 4 4 7 9 9 10 11 13 13 13 6 8 15 15 16 17 16 17 16 16 18 17 16 17 18 16 13 17 17 20 23 23 20 13 10 10 11
6 5 5 4 5 6 6 7 7 9 10 10 12 12 11 13 11 12 11 10 13 12 16 18 18 16 16 18 17 18 18 14 15 15 16 17 19 17 19 12 9 9 9
6 5 5 4 5 6 6 7 8 9 10 11 12 12 12 12 15 11 11 12 11 12 13 13 13 20 21 26 27 17 17 17 17 14 12 10 10 11 9 8 9 9 9
7 6 5 4 4 5 7 7 8 9 10 11 12 11 9 12 13 13 12 11 15 15 15 13 14 24 28 27 22 23 23 17 11 10 9 9 9 9 9 9 10 9 10
7 6 5 4 5 5 7 7 7 8 8 9 8 9 10 8 9 11 10 19 20 14 13 17 25 26 25 18 17 17 15 9 9 9 9 9 9 9 11 10 10 11 12
8 6 4 4 4 6 4 4 5 6 7 8 9 10 8 10 8 8 11 13 16 14 15 14 18 19 16 11 11 10 9 9 10 10 10 10 9 8 8 8 8 8 7
7 5 4 3 5 5 5 5 6 7 5 8 9 10 10 10 9 13 15 14 14 16 17 13 11 10 10 11 11 11 9 9 9 9 9 9 9 8 8 7 7 7 7
7 5 3 2 4 5 6 7 7 12 9 12 15 13 10 14 17 16 21 24 24 24 13 11 11 11 11 12 11 11 10 10 9 9 9 9 9 8 8 7 7 7 7
8 6 4 3 4 5 6 7 8 4 12 15 17 18 17 18 15 17 23 23 24 18 9 10 11 11 11 11 11 11 12 10 12 9 9 9 8 8 8 7 7 6 6
8 4 3 4 5 5 6 6 7 8 8 8 6 10 8 8 13 21 21 20 11 10 10 11 11 12 12 12 11 11 11 10 10 9 9 8 7 7 7 7 6 7 5
8 5 6 4 3 4 5 7 7 8 9 9 8 7 6 7 16 17 15 9 11 11 11 11 11 12 12 12 12 11 12 11 10 9 8 6 6 6 6 7 6 7 4
7 6 2 3 4 5 5 6 7 8 9 9 9 10 9 9 11 10 9 9 9 10 11 12 12 12 12 12 12 11 11 11 10 8 7 6 5 5 6 6 5 2 5
6 6 4 5 5 5 5 6 7 8 8 8 9 8 7 9 10 10 10 10 10 11 11 11 11 12 11 11 11 12 12 10 9 8 6 6 6 6 5 4 1 4 6
6 5 5 5 4 4 5 5 7 7 8 8 9 8 7 7 9 10 10 10 10 11 10 11 11 11 11 11 11 11 12 11 8 6 6 6 6 5 2 3 4 5 6
6 6 5 5 4 2 4 6 6 7 8 8 9 8 8 7 8 10 9 10 10 11 10 10 11 11 10 11 10 10 10 10 8 6 6 5 5 3 3 3 4 5 6
7 7 6 5 4 5 4 4 6 8 8 8 7 7 8 7 8 9 9 9 10 10 10 10 10 13 12 12 10 9 9 9 7 5 6 4 2 2 3 5 7 7 6
7 6 5 5 4 3 2 6 6 6 7 7 7 7 9 8 8 9 9 9 10 11 12 11 9 13 13 18 14 16 14 14 9 6 3 4 4 5 5 6 6 7 8
7 7 6 5 4 3 4 3 4 6 7 7 7 7 8 8 8 9 9 10 10 12 13 10 12 14 15 12 14 16 13 11 8 8 4 3 4 5 5 6 9 8 9
Wind_Direction
42 29 18 12 5 4 5 1 0 352 355 354 354 354 357 358 357 355 353 352 344 339 341 339 335 336 334 323 323 315 311 301 298 298 299 305 308 316 319 317 322 345 333
49 28 18 6 360 1 1 356 354 350 351 348 352 352 352 354 349 352 350 344 339 336 333 334 327 331 328 326 338 320 317 317 305 310 316 311 308 320 318 323 318 319 329
27 14 26 3 358 354 354 349 350 349 348 352 351 349 349 346 342 358 351 341 335 330 332 329 325 326 325 337 325 313 321 310 322 307 310 307 309 316 308 314 315 321 316
4 350 17 353 348 350 350 347 347 345 343 348 347 346 344 342 338 358 344 337 331 327 324 323 320 324 336 326 329 323 327 327 317 311 309 313 316 318 317 326 323 320 317
265 319 357 345 338 349 346 341 343 339 339 342 340 340 339 332 25 356 342 331 326 324 320 319 322 340 325 358 331 335 327 322 314 311 309 309 310 317 328 328 315 315 307
225 273 332 332 329 350 340 338 340 341 343 338 336 336 334 327 69 4 339 328 322 316 318 323 327 324 343 333 329 322 312 308 302 301 302 304 306 309 317 319 313 307 306
208 217 261 302 321 346 335 342 343 338 334 335 334 332 331 326 43 357 349 324 314 317 321 324 325 322 319 314 312 303 304 298 277 282 286 288 296 304 305 302 298 292 291
210 214 232 286 308 326 332 338 335 327 333 330 327 330 327 327 41 22 340 327 320 324 325 323 315 312 311 305 306 305 303 302 296 288 286 288 289 296 293 292 293 289 285
212 211 229 266 288 306 315 248 319 323 323 324 325 327 324 330 71 22 351 331 321 319 317 310 310 307 307 315 311 303 304 301 295 286 282 286 284 283 275 280 275 275 288
199 200 222 257 283 308 320 317 317 316 318 321 324 322 323 330 351 356 336 314 310 311 311 310 308 303 314 315 309 307 304 302 302 300 294 290 288 288 282 267 279 276 282
183 205 230 268 292 303 310 309 316 314 316 315 316 323 334 335 323 335 316 319 318 314 308 309 309 312 314 308 302 298 293 293 292 291 291 287 284 281 288 283 274 278 279
193 205 226 263 301 308 311 310 315 314 315 318 326 324 326 327 328 320 321 308 312 309 308 306 305 312 301 298 298 291 287 288 288 287 287 288 286 287 287 286 274 265 264
195 209 226 264 296 314 307 318 324 331 325 317 312 312 313 316 307 311 325 321 310 307 303 302 304 301 299 296 290 285 290 288 291 294 294 294 291 285 290 287 285 284 285
199 204 222 251 307 300 312 320 312 300 300 305 312 308 316 315 317 331 324 318 315 314 313 310 299 291 286 288 300 300 303 301 300 296 294 293 292 294 292 293 291 295 296
198 205 228 272 287 297 302 295 296 295 313 306 304 307 309 311 319 317 319 321 317 311 310 302 304 311 314 312 312 310 306 301 299 299 296 297 300 299 297 303 299 299 295
196 209 210 227 277 291 291 295 236 233 243 243 254 262 286 288 292 314 321 318 311 308 304 304 313 313 311 313 311 308 307 305 303 303 300 299 301 303 304 306 301 305 291
198 199 183 207 251 272 285 293 304 282 228 238 249 259 264 270 298 319 321 315 309 304 312 314 313 312 311 311 310 309 309 309 310 301 298 300 305 302 304 305 307 295 289
200 72 221 239 252 266 277 311 302 307 312 314 301 277 285 308 320 320 313 313 320 323 320 320 317 315 314 312 313 313 312 311 308 303 301 302 303 301 303 304 297 298 303
194 208 189 227 266 283 293 283 294 299 301 306 307 312 343 333 320 309 303 322 320 321 321 318 316 315 316 317 317 313 313 309 308 302 299 299 302 299 304 300 297 301 314
195 115 115 241 259 263 277 287 296 299 304 308 319 323 326 328 326 321 324 322 321 318 317 318 319 320 320 319 319 319 317 316 314 311 311 308 304 306 299 298 304 341 65
178 169 183 228 248 262 289 291 294 300 300 312 311 312 314 323 321 321 324 324 323 318 318 319 320 320 318 318 319 318 316 312 311 310 314 317 313 305 303 305 44 77 94
180 184 194 216 239 259 277 300 292 295 304 309 311 306 309 312 321 319 317 318 316 313 318 318 318 319 318 321 320 315 317 315 313 316 319 315 312 314 346 39 72 87 98
179 189 202 224 241 261 262 271 293 300 298 305 304 312 311 317 318 318 315 315 315 313 315 320 316 316 319 323 320 317 318 317 313 310 313 318 319 13 41 76 88 98 106
182 189 209 223 221 247 273 283 292 285 296 302 303 308 312 314 313 318 315 314 312 312 318 317 315 319 320 324 323 328 325 326 310 302 311 311 30 57 78 81 90 96 99
178 187 204 220 230 240 281 282 290 295 293 296 304 303 310 311 315 321 316 314 312 321 319 319 320 324 326 325 328 336 334 334 339 334 350 47 59 69 88 95 103 102 103
177 190 202 214 225 224 253 270 287 290 294 294 295 305 304 310 311 320 316 314 323 318 320 321 319 325 327 326 337 332 334 338 343 350 359 79 88 88 95 100 104 109 115